This demonstration page uses our WeatherBlox Daily Observations layout. Learn more.

Left ArrowRight Arrow

39.01783, -85.05884

Hourly Observations for February 11, 2021

Temp ( °F °C ) Dew Point ( °F °C ) Humidity (%) Winds ( mph kmh ) Pressure ( in mb ) Visibility ( mi km ) Precip ( " mm )
12:52 am 00:52 Mostly Cloudy with Haze 21 -6.1 16 -8.9 81 81 NNE 13 20 30.23 1024 6 10 0.00 0.00
1:52 am 01:52 Cloudy 20 -6.7 15 -9.4 81 81 NNE 12 19 30.23 1024 7 11 0.00 0.00
2:52 am 02:52 Cloudy 20 -6.7 14 -10 78 78 N 17 28 30.26 1025 8 13 0.00 0.00
3:20 am 03:20 Cloudy with Light Snow 19 -7.2 14 -10 81 81 N 14 22 30.30 1026 7 11 0.00 0.00
3:34 am 03:34 Cloudy 19 -7.2 14 -10 81 81 NNE 16 26 30.30 1026 9 14 0.00 0.00
3:52 am 03:52 Cloudy 19 -7.2 14 -10 81 81 NNE 15 24 30.27 1025 9 14 0.00 0.00
4:30 am 04:30 Cloudy 19 -7.2 13 -10.6 77 77 N 12 19 30.31 1027 9 14 0.00 0.00
4:52 am 04:52 Cloudy 19 -7.2 13 -10.6 77 77 N 14 22 30.29 1026 10 16 0.00 0.00
5:36 am 05:36 Cloudy 19 -7.2 13 -10.6 77 77 NNE 13 20 30.35 1028 10 16 0.00 0.00
5:52 am 05:52 Cloudy 19 -7.2 13 -10.6 77 77 NNE 15 24 30.30 1026 10 16 0.00 0.00
6:52 am 06:52 Cloudy 19 -7.2 13 -10.6 77 77 NNE 18 30 30.29 1026 10 16 0.00 0.00
7:52 am 07:52 Cloudy with Light Snow 19 -7.2 13 -10.6 77 77 NE 16 26 30.29 1026 2 3 0.00 0.00
8:37 am 08:37 Cloudy with Light Snow 19 -7.2 14 -10 81 81 NE 12 19 30.34 1028 1 2 0.00 0.00
8:52 am 08:52 Cloudy with Light Snow 20 -6.7 14 -10 78 78 NNE 12 19 30.31 1026 2 2 0.00 0.00
9:18 am 09:18 Cloudy with Light Snow 20 -6.7 14 -10 78 78 NNE 16 26 30.35 1028 2 3 0.00 0.00
9:32 am 09:32 Cloudy with Light Snow 20 -6.7 15 -9.4 81 81 NNE 15 24 30.34 1027 1 2 0.00 0.00
9:52 am 09:52 Cloudy with Light Snow 20 -6.7 15 -9.4 81 81 NE 13 20 30.31 1026 1 2 0.00 0.00
10:10 am 10:10 Cloudy with Light Snow 20 -6.7 15 -9.4 81 81 NE 15 24 30.35 1028 2 3 0.00 0.00
10:20 am 10:20 Cloudy with Light Snow 20 -6.7 15 -9.4 81 81 NNE 14 22 30.36 1028 3 5 0.00 0.00
10:52 am 10:52 Cloudy 21 -6.1 15 -9.4 78 78 NNE 16 26 30.31 1027 7 11 0.00 0.00
11:31 am 11:31 Cloudy with Light Snow 21 -6.1 14 -10 74 74 NE 15 24 30.36 1028 4 6 0.00 0.00
11:52 am 11:52 Cloudy with Haze 22 -5.6 14 -10 71 71 NE 14 22 30.32 1027 5 8 0.00 0.00
12:28 pm 12:28 Cloudy 23 -5 14 -10 68 68 NE 15 24 30.34 1027 7 11 0.00 0.00
12:52 pm 12:52 Cloudy 23 -5 13 -10.6 65 65 NE 15 24 30.29 1026 8 13 0.00 0.00
1:52 pm 13:52 Cloudy 24 -4.4 13 -10.6 62 62 NE 10 17 30.25 1025 8 13 0.00 0.00
2:52 pm 14:52 Cloudy 25 -3.9 14 -10 63 63 NNE 15 24 30.25 1024 9 14 0.00 0.00
3:52 pm 15:52 Cloudy 25 -3.9 13 -10.6 60 60 NNE 17 28 30.24 1024 10 16 0.00 0.00
4:52 pm 16:52 Cloudy 25 -3.9 12 -11.1 58 58 NE 15 24 30.25 1025 10 16 0.00 0.00
5:52 pm 17:52 Cloudy 25 -3.9 12 -11.1 58 58 NNE 15 24 30.24 1024 10 16 0.00 0.00
6:52 pm 18:52 Cloudy 24 -4.4 12 -11.1 60 60 NE 21 33 30.24 1024 10 16 0.00 0.00
7:52 pm 19:52 Cloudy 24 -4.4 12 -11.1 60 60 NE 12 19 30.26 1025 10 16 0.00 0.00
8:52 pm 20:52 Cloudy 23 -5 12 -11.1 63 63 NE 13 20 30.24 1024 10 16 0.00 0.00
9:52 pm 21:52 Cloudy 22 -5.6 12 -11.1 66 66 NNE 12 19 30.24 1024 10 16 0.00 0.00
10:52 pm 22:52 Cloudy 22 -5.6 12 -11.1 66 66 NNE 13 20 30.22 1023 10 16 0.00 0.00
11:52 pm 23:52 Cloudy 20 -6.7 12 -11.1 71 71 N 12 19 30.19 1022 10 16 0.00 0.00

Powered by AerisWeather